Location: Praha
(50.0830°N, 14.4670°E)
Time: 12:57:23
(UTC+02:00)

ISS - Pass Details

Date: 18 September 2021
Orbit: 419 x 423 km, 51.6° (Epoch: 21 September)

Event Time Altitude Azimuth Distance (km) Brightness Sun altitude
Rises 20:51:03 0° 234° (SW) 2,357 0.5 -16.7°
Reaches altitude 10° 20:53:11 10° 229° (SW) 1,497 -0.7 -17.0°
Maximum altitude 20:56:26 49° 154° (SSE) 551 -3.5 -17.5°
Enters shadow 20:56:29 49° 150° (SSE) 552 -3.6 -17.5°
